Location: Mentone
(34.5413°N, 85.5351°W)
Time: 22:21:06
(UTC-05:00)

Transit 2A Rocket - Visible Passes

Search period start: 30 July 2014 00:00
Search period end: 09 August 2014 00:00
Orbit: 596 x 913 km, 66.7° (Epoch: 30 July)

Date Brightness Start Highest point End Pass type
(mag) Time Alt. Az. Time Alt. Az. Time Alt. Az.
30 Jul 7.6 00:52:00 10° NW 00:52:10 11° NW 00:52:10 11° NW visible
30 Jul 7.2 22:30:07 10° NNE 22:31:26 12° NE 22:31:26 12° NE visible
31 Jul 7.2 00:10:08 10° NNW 00:11:23 19° NNW 00:11:23 19° NNW visible
31 Jul 6.7 23:28:34 10° NNW 23:30:38 26° N 23:30:38 26° N visible
01 Aug 6.4 22:47:18 10° N 22:49:56 26° NNE 22:49:56 26° NNE visible
02 Aug 6.7 22:06:25 10° N 22:09:16 18° NE 22:09:16 18° NE visible
02 Aug 7.1 23:47:53 10° NW 23:49:13 19° NW 23:49:13 19° NW visible
03 Aug 7.1 21:26:56 10° NE 21:27:44 10° NE 21:28:32 10° ENE visible
03 Aug 6.3 23:06:05 10° NNW 23:08:36 33° NNW 23:08:36 33° NNW visible
04 Aug 5.7 22:24:35 10° NNW 22:28:01 41° NNE 22:28:01 41° NNE visible
05 Aug 6.0 21:43:23 10° N 21:47:26 28° ENE 21:47:28 28° ENE visible
05 Aug 7.1 23:25:52 10° NW 23:27:26 18° WNW 23:27:26 18° WNW visible
06 Aug 6.6 21:02:37 10° NNE 21:05:36 16° NE 21:06:58 15° ENE visible
06 Aug 6.0 22:43:47 10° NW 22:46:56 38° WNW 22:46:56 38° WNW visible
07 Aug 4.8 22:02:03 10° NNW 22:06:29 77° N 22:06:29 77° N visible
08 Aug 5.3 21:20:36 10° NNW 21:25:07 45° ENE 21:26:05 40° E visible
08 Aug 7.2 23:04:15 10° WNW 23:06:04 16° W 23:06:04 16° W visible
